When you browse on this site, cookies collect data to enhance your experience and personalize the content and advertising you see.
Visit our Privacy Policy to learn more. By continuing to use the site, you agree to this use of cookies and data.
  • In Latvia
  • List of Countries
  • For 7 days
  • Water Temperature
  • Weather Map
  • Weather Widgets
  • user-avatar
    Login

    Hourly Weather Kuntaur

    Today, 2 June, Tuesday

    Time Temperature Precipitation Wind Pressure Humidity
    00:00 +30°C° 0 mm 3 mps 759 mmHg 56%
    01:00 +29°C° 0 mm 2 mps 759 mmHg 54%
    02:00 +29°C° 0 mm 2 mps 759 mmHg 53%
    03:00 +29°C° 0 mm 2 mps 759 mmHg 51%
    04:00 +29°C° 0 mm 2 mps 759 mmHg 48%
    05:00 +28°C° 0 mm 2 mps 759 mmHg 39%
    06:00 +29°C° 0 mm 2 mps 759 mmHg 36%
    07:00 +30°C° 0 mm 2 mps 759 mmHg 33%
    08:00 +31°C° 0 mm 2 mps 760 mmHg 30%
    09:00 +34°C° 0 mm 2 mps 759 mmHg 26%
    10:00 +37°C° 0 mm 2 mps 759 mmHg 22%
    11:00 +39°C° 0 mm 2 mps 759 mmHg 17%
    12:00 +40°C° 0 mm 1 mps 758 mmHg 17%
    13:00 +42°C° 0 mm 1 mps 757 mmHg 16%
    14:00 +43°C° 0 mm 1 mps 756 mmHg 15%
    15:00 +43°C° 0 mm 1 mps 756 mmHg 16%
    16:00 +42°C° 0 mm 1 mps 756 mmHg 16%
    17:00 +39°C° 0 mm 0 mps 756 mmHg 17%
    18:00 +41°C° 0 mm 1 mps 756 mmHg 18%
    19:00 +39°C° 0 mm 2 mps 757 mmHg 20%
    20:00 +37°C° 0 mm 2 mps 758 mmHg 22%
    21:00 +36°C° 0 mm 3 mps 758 mmHg 24%
    22:00 +34°C° 0 mm 4 mps 758 mmHg 27%
    23:00 +33°C° 0 mm 4 mps 758 mmHg 29%

    Tomorrow, 3 June, Wednesday

    Time Temperature Precipitation Wind Pressure Humidity
    00:00 +32°C° 0 mm 4 mps 758 mmHg 31%
    01:00 +29°C° 0 mm 4 mps 758 mmHg 33%
    02:00 +28°C° 0 mm 4 mps 757 mmHg 35%
    03:00 +28°C° 0 mm 3 mps 757 mmHg 37%
    04:00 +27°C° 0 mm 3 mps 758 mmHg 39%
    05:00 +26°C° 0 mm 2 mps 758 mmHg 41%
    06:00 +28°C° 0 mm 3 mps 758 mmHg 36%
    07:00 +30°C° 0 mm 3 mps 758 mmHg 32%
    08:00 +31°C° 0 mm 3 mps 759 mmHg 27%
    09:00 +35°C° 0 mm 4 mps 758 mmHg 23%
    10:00 +38°C° 0 mm 4 mps 758 mmHg 19%
    11:00 +42°C° 0 mm 4 mps 758 mmHg 14%
    12:00 +43°C° 0 mm 4 mps 757 mmHg 14%
    13:00 +46°C° 0 mm 5 mps 756 mmHg 13%
    14:00 +47°C° 0 mm 5 mps 755 mmHg 12%
    15:00 +47°C° 0 mm 4 mps 755 mmHg 13%
    16:00 +47°C° 0 mm 4 mps 754 mmHg 13%
    17:00 +45°C° 0 mm 4 mps 754 mmHg 13%
    18:00 +44°C° 0 mm 4 mps 754 mmHg 15%
    19:00 +42°C° 0 mm 4 mps 755 mmHg 16%
    20:00 +40°C° 0 mm 4 mps 755 mmHg 18%
    21:00 +37°C° 0 mm 4 mps 756 mmHg 21%
    22:00 +35°C° 0 mm 5 mps 756 mmHg 25%
    23:00 +33°C° 0 mm 5 mps 757 mmHg 28%

    Day after tomorrow, 4 June, Thursday

    Time Temperature Precipitation Wind Pressure Humidity
    00:00 +32°C° 0 mm 4 mps 756 mmHg 30%
    01:00 +30°C° 0 mm 3 mps 756 mmHg 31%
    02:00 +29°C° 0 mm 3 mps 756 mmHg 33%
    03:00 +28°C° 0 mm 2 mps 756 mmHg 34%
    04:00 +27°C° 0 mm 2 mps 756 mmHg 36%
    05:00 +27°C° 0 mm 2 mps 756 mmHg 37%
    06:00 +28°C° 0 mm 2 mps 757 mmHg 34%
    07:00 +30°C° 0 mm 2 mps 757 mmHg 31%
    08:00 +31°C° 0 mm 2 mps 758 mmHg 28%
    09:00 +34°C° 0 mm 3 mps 758 mmHg 25%
    10:00 +37°C° 0 mm 3 mps 757 mmHg 22%
    11:00 +39°C° 0 mm 3 mps 757 mmHg 19%
    12:00 +42°C° 0 mm 4 mps 756 mmHg 16%
    13:00 +46°C° 0 mm 5 mps 755 mmHg 14%
    14:00 +48°C° 0 mm 5 mps 755 mmHg 12%
    15:00 +48°C° 0 mm 5 mps 754 mmHg 12%
    16:00 +47°C° 0 mm 5 mps 754 mmHg 13%
    17:00 +47°C° 0 mm 5 mps 753 mmHg 13%
    18:00 +43°C° 0 mm 4 mps 754 mmHg 15%
    19:00 +40°C° 0 mm 3 mps 755 mmHg 17%
    20:00 +38°C° 0 mm 3 mps 755 mmHg 19%
    21:00 +36°C° 0 mm 3 mps 756 mmHg 24%
    22:00 +34°C° 0 mm 3 mps 756 mmHg 29%
    23:00 +31°C° 0 mm 3 mps 757 mmHg 34%

    5 June, Friday

    Time Temperature Precipitation Wind Pressure Humidity
    00:00 +30°C° 0 mm 3 mps 756 mmHg 36%
    01:00 +29°C° 0 mm 2 mps 756 mmHg 37%
    02:00 +28°C° 0 mm 2 mps 756 mmHg 39%
    03:00 +27°C° 0 mm 2 mps 756 mmHg 41%
    04:00 +27°C° 0 mm 2 mps 756 mmHg 44%
    05:00 +26°C° 0 mm 1 mps 756 mmHg 46%
    06:00 +28°C° 0 mm 1 mps 757 mmHg 42%
    07:00 +29°C° 0 mm 2 mps 757 mmHg 38%
    08:00 +31°C° 0 mm 2 mps 758 mmHg 34%
    09:00 +35°C° 0 mm 2 mps 757 mmHg 29%
    10:00 +37°C° 0 mm 2 mps 757 mmHg 24%
    11:00 +40°C° 0 mm 2 mps 757 mmHg 20%
    12:00 +42°C° 0 mm 2 mps 756 mmHg 18%
    13:00 +45°C° 0 mm 2 mps 755 mmHg 16%
    14:00 +46°C° 0 mm 1 mps 754 mmHg 14%
    15:00 +46°C° 0 mm 2 mps 754 mmHg 14%
    16:00 +46°C° 0 mm 2 mps 754 mmHg 14%
    17:00 +46°C° 0 mm 2 mps 753 mmHg 14%
    18:00 +44°C° 0 mm 3 mps 754 mmHg 17%
    19:00 +42°C° 0 mm 4 mps 755 mmHg 19%
    20:00 +40°C° 0 mm 5 mps 756 mmHg 22%
    21:00 +37°C° 0 mm 4 mps 756 mmHg 28%
    22:00 +35°C° 0 mm 4 mps 757 mmHg 35%
    23:00 +33°C° 0 mm 4 mps 757 mmHg 41%

    6 June, Saturday

    Time Temperature Precipitation Wind Pressure Humidity
    00:00 +32°C° 0 mm 4 mps 757 mmHg 44%
    01:00 +30°C° 0 mm 3 mps 757 mmHg 47%
    02:00 +29°C° 0 mm 3 mps 757 mmHg 50%
    03:00 +28°C° 0 mm 2 mps 757 mmHg 52%
    04:00 +28°C° 0 mm 2 mps 758 mmHg 54%
    05:00 +27°C° 0 mm 1 mps 758 mmHg 56%
    06:00 +29°C° 0 mm 2 mps 758 mmHg 50%
    07:00 +30°C° 0 mm 2 mps 758 mmHg 44%
    08:00 +32°C° 0 mm 2 mps 759 mmHg 39%
    09:00 +35°C° 0 mm 2 mps 758 mmHg 34%
    10:00 +37°C° 0 mm 1 mps 758 mmHg 29%
    11:00 +41°C° 0 mm 1 mps 758 mmHg 23%
    12:00 +42°C° 0 mm 1 mps 757 mmHg 22%
    13:00 +43°C° 0 mm 1 mps 756 mmHg 20%
    14:00 +45°C° 0 mm 1 mps 755 mmHg 18%
    15:00 +45°C° 0 mm 1 mps 754 mmHg 18%
    16:00 +44°C° 0 mm 1 mps 754 mmHg 18%
    17:00 +44°C° 0 mm 1 mps 754 mmHg 18%
    18:00 +42°C° 0.1 mm 2 mps 755 mmHg 21%
    19:00 +42°C° 0.1 mm 3 mps 756 mmHg 23%
    20:00 +40°C° 0.1 mm 4 mps 756 mmHg 26%
    21:00 +36°C° 0 mm 4 mps 757 mmHg 36%
    22:00 +34°C° 0 mm 5 mps 758 mmHg 46%
    23:00 +30°C° 0 mm 6 mps 758 mmHg 56%

    7 June, Sunday

    Time Temperature Precipitation Wind Pressure Humidity
    00:00 +30°C° 0 mm 5 mps 758 mmHg 58%
    01:00 +29°C° 0 mm 5 mps 758 mmHg 60%
    02:00 +29°C° 0 mm 4 mps 757 mmHg 63%
    03:00 +28°C° 0 mm 4 mps 757 mmHg 65%
    04:00 +28°C° 0 mm 3 mps 758 mmHg 67%
    05:00 +27°C° 0 mm 3 mps 758 mmHg 69%
    06:00 +28°C° 0 mm 3 mps 758 mmHg 65%
    07:00 +29°C° 0 mm 3 mps 758 mmHg 60%
    08:00 +30°C° 0 mm 4 mps 758 mmHg 56%
    09:00 +34°C° 0 mm 4 mps 758 mmHg 49%
    10:00 +36°C° 0 mm 3 mps 758 mmHg 41%
    11:00 +38°C° 0 mm 3 mps 758 mmHg 33%
    12:00 +40°C° 0 mm 3 mps 757 mmHg 30%
    13:00 +42°C° 0 mm 4 mps 756 mmHg 27%
    14:00 +44°C° 0 mm 4 mps 755 mmHg 24%
    15:00 +44°C° 0 mm 3 mps 755 mmHg 23%
    16:00 +44°C° 0 mm 3 mps 755 mmHg 23%
    17:00 +44°C° 0 mm 3 mps 755 mmHg 22%
    18:00 +42°C° 0 mm 3 mps 755 mmHg 29%
    19:00 +38°C° 0 mm 4 mps 756 mmHg 36%
    20:00 +35°C° 0 mm 5 mps 757 mmHg 43%
    21:00 +34°C° 0 mm 5 mps 757 mmHg 49%
    22:00 +32°C° 0 mm 5 mps 758 mmHg 55%
    23:00 +30°C° 0 mm 5 mps 758 mmHg 61%
    Show more